Weather History for Scappoose, OR

Change the Weather History Date:

Monday, April 7, 2014

  Actual Average Record
Temperature  
Mean Temperature 58 °F -  
Max Temperature 73 °F - 77 °F (2009)
Min Temperature 42 °F - 27 °F (2012)
Degree Days  
Heating Degree Days 7    
Month to date heating degree days 98  
Since 1 July heating degree days 4260  
Cooling Degree Days 0    
Month to date cooling degree days 0  
Year to date cooling degree days 0  
Growing Degree Days 8 (Base 50)    
Moisture  
Dew Point 48 °F    
Average Humidity 73    
Maximum Humidity 100    
Minimum Humidity 46    
Precipitation  
Precipitation 0.00 in - 0.57 in (2007)
Month to date precipitation 0.50  
Year to date precipitation 18.15  
Sea Level Pressure  
Sea Level Pressure 30.22 in    
Wind  
Wind Speed 3 mph (North)    
Max Wind Speed 12 mph    
Max Gust Speed 14 mph    
Visibility 9 miles    
Events      
T = Trace of Precipitation, MM = Missing Value Source: NWS Daily Summary

Daily Weather History Graph

Daily Weather History Graph

Search for Another Location

Airport:

Trip Planner

Search our weather history database for the weather conditions in past years. The results will help you decide how hot, cold, wet, or windy it might be!

Date:

Astronomy

Apr. 07, 2014 Rise Set
Actual Time 6:40 AM PDT 7:47 PM PDT
Civil Twilight 6:09 AM PDT 8:18 PM PDT
Nautical Twilight 5:33 AM PDT 8:55 PM PDT
Astronomical Twilight 4:54 AM PDT 9:33 PM PDT
Moon 12:33 PM PDT (4/7) 2:36 AM PDT (4/7)
Length of Visible Light 14h 08m
Length of Day
13h 07m
First Quarter, 54% of the Moon is Illuminated
Apr 7
First Quarter
Apr 15
Full
Apr 22
Last Quarter
Apr 28
New
May 6
First Quarter

Hourly Weather History & Observations

Time (PDT) Temp. Windchill Dew Point Humidity Pressure Visibility Wind Dir Wind Speed Gust Speed Precip Events Conditions
12:53 AM 46.0 °F - 45.0 °F 96% 30.31 in 2.5 mi Calm Calm - N/A   Clear
1:15 AM 45.0 °F - 45.0 °F 100% 30.31 in 6.0 mi Calm Calm - N/A   Clear
1:22 AM 44.1 °F - 43.0 °F 96% 30.31 in 1.8 mi Calm Calm - N/A   Clear
1:31 AM 45.0 °F 43.5 °F 44.1 °F 97% 30.31 in 3.0 mi West 3.5 mph - N/A   Clear
1:53 AM 44.1 °F 42.5 °F 44.1 °F 100% 30.30 in 10.0 mi WNW 3.5 mph - N/A   Clear
2:53 AM 44.1 °F - 43.0 °F 96% 30.30 in 10.0 mi Calm Calm - N/A   Partly Cloudy
3:18 AM 43.0 °F - 43.0 °F 100% 30.29 in 10.0 mi Calm Calm - N/A   Mostly Cloudy
3:28 AM 43.0 °F 41.3 °F 42.1 °F 97% 30.29 in 10.0 mi WSW 3.5 mph - N/A   Overcast
3:53 AM 45.0 °F 43.5 °F 44.1 °F 97% 30.29 in 10.0 mi West 3.5 mph - N/A   Overcast
4:45 AM 46.9 °F - 45.0 °F 93% 30.28 in 10.0 mi Calm Calm - N/A   Overcast
4:53 AM 46.9 °F - 45.0 °F 93% 30.28 in 10.0 mi Calm Calm - N/A   Overcast
5:53 AM 46.9 °F - 46.0 °F 97% 30.27 in 7.0 mi Calm Calm - N/A   Overcast
6:53 AM 48.0 °F - 46.9 °F 96% 30.27 in 6.0 mi Calm Calm - N/A   Overcast
8:00 AM 50.0 °F - 48.9 °F 96% 30.26 in 3.0 mi Calm Calm - N/A   Overcast
8:53 AM 50.0 °F - 48.9 °F 96% 30.26 in 10.0 mi Calm Calm - N/A   Overcast
9:51 AM 53.6 °F - 48.2 °F 82% 30.24 in 10.0 mi ENE 3.5 mph - N/A   Scattered Clouds
9:53 AM 52.0 °F - 48.0 °F 86% 30.24 in 10.0 mi Calm Calm - N/A   Partly Cloudy
10:53 AM 55.9 °F - 51.1 °F 84% 30.23 in 10.0 mi Variable 3.5 mph - N/A   Clear
11:53 AM 59.0 °F - 52.0 °F 78% 30.21 in 10.0 mi Calm Calm - N/A   Clear
1:53 PM 66.0 °F - 51.1 °F 59% 30.16 in 10.0 mi ESE 4.6 mph - N/A   Clear
2:53 PM 69.1 °F - 51.1 °F 53% 30.14 in 10.0 mi Calm Calm - N/A   Clear
3:53 PM 71.1 °F - 51.1 °F 49% 30.11 in 10.0 mi East 5.8 mph - N/A   Clear
4:53 PM 72.0 °F - 51.1 °F 48% 30.10 in 10.0 mi SE 5.8 mph - N/A   Clear
5:53 PM 73.0 °F - 51.1 °F 46% 30.09 in 10.0 mi SSW 3.5 mph - N/A   Clear
6:53 PM 72.0 °F - 51.1 °F 48% 30.08 in 10.0 mi Calm Calm - N/A   Clear
7:53 PM 66.0 °F - 53.1 °F 63% 30.09 in 10.0 mi NNW 5.8 mph - N/A   Clear
8:53 PM 62.1 °F - 52.0 °F 70% 30.11 in 10.0 mi North 8.1 mph - N/A   Clear
9:53 PM 57.9 °F - 51.1 °F 78% 30.13 in 10.0 mi North 8.1 mph - N/A   Clear
10:53 PM 55.0 °F - 48.9 °F 80% 30.15 in 10.0 mi NNE 6.9 mph - N/A   Clear
11:53 PM 53.1 °F - 48.0 °F 83% 30.17 in 10.0 mi North 9.2 mph - N/A   Clear